Tracking 22993 objects as of 11-May-2021
HD Live streaming from Space Station
objects crossing your sky now

BLOCK DM-SL R/B

Track BLOCK DM-SL R/B now!


NORAD ID: 36107
Int'l Code: 2009-067B
Perigee: 10,090.2 km
Apogee: 35,657.5 km
Inclination: 12.1 °
Period: 829.5 minutes
Semi major axis: 29244 km
RCS: 12.5893 m2 (large)
Launch date: November 30, 2009
Source: Commonwealth of Independent States (former USSR) (CIS)
Launch site: TYURATAM MISSILE AND SPACE COMPLEX (TTMTR)

Note: This is a ROCKET BODY
aabbcc
Your satellite tracking list
Your tracking list is empty




NASA's NSSDC Master Catalog

Two Line Element Set (TLE):
1 36107U 09067B   21131.18901377 -.00000072  00000-0  00000+0 0  9992
2 36107  12.1273  75.5525 4371252 257.4250 315.7294  1.73591946 72570
Source of the keplerian elements: AFSPC